Back to catalog

STARLINK-34274

AliveCommunicationsVLEO
NORAD 64348·PAYLOAD·🇺🇸 United States

Launched Jun 13, 2025 from Vandenberg Space Force Base

Loading…

Next Passes (next 24 hours)

TLE

FreshSource: CelesTrak SupGP

Epoch: Sep 15, 2026, 03:07 UTC

1 64348C 25126E   26258.13034722 -.00025253  00000+0 -87834-3 0  2585
2 64348  70.0003 275.3424 0003200 269.4181 145.0369 15.29596784    15

Track STARLINK-34274 in real time with AllMySat

Download on the App Store